STARLINK-1274, 45387

Orbit data source: Space-Track

STARLINK-1274, 45387 is a payload satellite owned by SpaceX/Seattle (US) in LEO that was launched on Wed, 18 Mar 2020 UTC via an FALCON 9 launch vehicle from the Air Force Eastern Test Range (AFETR). Payload-class satellites include a variety of spacecraft equipped with specific instruments for various scientific and technological missions. These include communications satellites like Starlink; space stations such as the ISS; scientific satellites like the Hubble; Earth observation satellites from companies like Planet Labs, Umbra, and HawkEye 360; GPS; miniature CubeSats for education and research; and military/defense satellites.

Loading next visibility...
Identifier
45387, 2020-019AD
Orbit
LEO
Country
Flag of USUS
Related business
Manufacturer
SpaceX/Seattle
Mission
Partially operational Commercial Communications
Bus & Motor
STARLINK, Unknown motor
Mass
260 kg wet, ~248 kg dry
Launch date (UTC)
2020-03-18 (5 years ago)
Launch vehicle
FALCON 9
Launch site
Air Force Eastern Test Range (AFETR)
Object type
Payload
Rocket body
Debris
Shape & HBR
Box + 1 Pan, 4.4 m
Radar Cross Section
13.562 m², Large (>1 m²)

Expand to show TLE details & history
Last TLE update: 1 day ago

TLE from 1 day ago
0 STARLINK-1274
1 45387U 20019AD  25241.83428783  .00057114  00000-0  24348-2 0  9997
2 45387  53.0455 281.7365 0005301 340.5977  19.4816 15.22405865301176
Epoch: 2025-08-29T20:01Z
TLE epoch observation values (Epoch: 2025-08-29T20:01:22.468Z)
Latitude
-0.00005°
Longitude
3.1156°
Altitude
496.034 km
Speed
7.62 km/s
True Right ascension
18h 46m 56s
True Declination
0° 00' 00"
Sunlit
Object was in full shadow at epoch
Visualization orbit readout
Latitude
Unknown
Longitude
Unknown
Altitude
Unknown
Speed
Unknown
Apparent Right ascension
Unknown
Apparent Declination
Unknown
Sunlit
N/A
Visualization observer readout
Local Sidereal Time
18:35:39
Azimuth
Unknown
Elevation
Unknown
Doppler factor
Unknown
Orbital elements
Apogee altitude
502.506 km
Perigee altitude
495.215 km
Semi-major axis
6,876.997 km
Eccentricity
0.00053
Inclination
53.0455°
RAAN
281.7365°
Arg. of periapsis
340.5977°
True anomaly
19.50187°
Mean anomaly
19.4816°
Eccentric anomaly
19.49173°
Mean motion
3.80579 °/min
Orbital period
94.59 mins
BSTAR
0.0024348
Loading maneuver chart data...
Computing Atmospheric mass density...
Loading historical data...
Loading historical data...
Loading historical data...
Loading historical data...
Loading historical data...
Loading historical data...
Loading historical data...

Documentation

Showing up to 5 results
|